MDT,Max TemperatureF,Mean TemperatureF,Min TemperatureF,Max Dew PointF,MeanDew PointF,Min DewpointF,Max Humidity, Mean Humidity, Min Humidity, Max Sea Level PressureIn, Mean Sea Level PressureIn, Min Sea Level PressureIn, Max VisibilityMiles, Mean VisibilityMiles, Min VisibilityMiles, Max Wind SpeedMPH, Mean Wind SpeedMPH, Max Gust SpeedMPH,PrecipitationIn, CloudCover, Events, WindDirDegrees
2013-9-1,87,72,56,42,40,38,55,37,18,30.05,29.96,29.88,10,10,10,15,6,17,0.00,0,,281
2013-9-2,88,75,61,55,45,36,67,46,25,29.94,29.87,29.78,10,10,10,25,6,31,0.00,3,,330
2013-9-3,89,73,56,57,50,46,75,50,24,30.14,29.95,29.88,10,10,7,13,5,18,0.01,1,Rain-Thunderstorm,8
2013-9-4,91,75,58,56,50,44,78,50,21,30.07,30.01,29.95,10,10,10,12,4,16,0.00,1,,331
2013-9-5,95,77,59,49,44,39,60,38,15,30.14,29.96,29.86,10,10,10,20,7,25,0.00,0,,231
2013-9-6,88,75,61,52,46,41,52,38,23,30.21,29.97,29.84,10,10,10,22,7,28,T,1,Thunderstorm,304
2013-9-7,88,72,55,57,51,46,72,49,25,30.16,29.99,29.86,10,9,2,54,5,66,0.16,1,Rain-Thunderstorm,297
2013-9-8,74,65,55,56,52,47,86,64,41,29.95,29.91,29.86,10,10,5,22,6,28,0.04,3,Rain,320
2013-9-9,77,63,49,51,46,39,93,60,26,29.96,29.89,29.81,10,10,10,20,5,26,0.00,1,,215
2013-9-10,73,64,55,48,46,42,72,55,38,30.08,30.03,29.96,10,10,10,12,3,13,0.00,5,,196
2013-9-11,61,58,54,55,52,46,100,80,60,30.35,30.23,30.07,10,6,1,15,6,17,0.60,8,Rain,273
2013-9-12,58,56,53,55,54,52,100,90,80,30.38,30.29,30.11,10,5,2,13,6,15,0.69,8,Rain,315
2013-9-13,69,61,53,56,53,50,100,80,59,30.20,29.98,29.81,10,10,8,10,3,28,T,6,,211
2013-9-14,69,62,55,56,54,51,93,76,58,30.04,29.92,29.81,10,8,2,14,4,16,0.14,7,Rain,312
2013-9-15,63,59,55,59,56,54,100,89,78,30.23,30.14,30.00,10,7,2,13,4,15,0.42,8,Rain,351
2013-9-16,77,65,52,55,52,46,93,69,44,30.16,29.94,29.81,10,10,7,15,4,17,0.00,2,,194
2013-9-17,81,67,52,55,47,39,77,51,25,29.93,29.75,29.59,10,9,2,28,7,33,0.01,3,Rain-Thunderstorm,208
2013-9-18,70,57,43,48,40,22,93,55,16,29.94,29.76,29.63,10,10,4,33,10,47,0.05,2,Rain-Thunderstorm,253
2013-9-19,63,51,38,33,31,28,70,50,30,30.11,30.06,29.94,10,10,10,13,5,15,0.00,0,,264
2013-9-20,69,54,38,39,34,30,85,55,24,30.13,30.00,29.86,10,10,10,13,3,14,0.00,0,,255
2013-9-21,80,62,43,41,29,20,60,36,11,29.88,29.72,29.52,10,10,10,26,9,38,0.00,0,,220
2013-9-22,68,60,52,42,38,34,55,44,32,29.67,29.52,29.45,10,10,10,33,8,40,T,1,Thunderstorm,215
2013-9-23,69,57,45,40,31,24,59,42,24,29.92,29.75,29.54,10,10,10,20,6,25,0.00,1,,313
2013-9-24,76,59,42,34,28,21,62,38,13,29.96,29.79,29.60,10,10,10,30,7,36,0.00,0,,230
2013-9-25,70,56,42,42,37,27,96,62,27,29.67,29.54,29.34,10,10,10,29,10,36,0.02,5,Rain,305
2013-9-26,47,40,32,40,36,32,100,83,65,29.95,29.83,29.61,10,5,0,7,4,8,1.25,7,Fog-Rain-Snow,306
2013-9-27,37,34,30,36,33,29,100,91,82,30.08,29.96,29.90,10,4,0,9,3,12,0.31,7,Fog-Rain-Snow,203
2013-9-28,55,42,28,37,31,25,92,69,46,30.15,30.08,29.99,10,10,10,14,4,16,0.00,0,,112
2013-9-29,69,53,37,41,33,29,85,56,26,29.96,29.81,29.69,10,10,10,26,6,39,0.00,2,,267
2013-9-30,69,60,50,35,32,28,54,38,22,29.79,29.65,29.59,10,10,10,35,13,51,0.00,2,,228